Location: Majestic Skies Ranch
(34.0000°N, 105.9300°W)
Time: 19:08:58
(UTC-07:00)

ISS - Visible Passes

Search period start: 21 December 2014 00:00
Search period end: 31 December 2014 00:00
Orbit: 404 x 414 km, 51.6° (Epoch: 21 December)

Date Brightness Start Highest point End Pass type
(mag) Time Alt. Az. Time Alt. Az. Time Alt. Az.
23 Dec -0.3 18:59:28 10° NNW 18:59:28 10° NNW 18:59:28 10° NNW visible
24 Dec -1.8 18:08:58 10° NNW 18:11:16 21° NNE 18:11:16 21° NNE visible
25 Dec -2.0 18:54:02 10° NW 18:56:07 36° WNW 18:56:07 36° WNW visible
26 Dec -3.2 18:03:07 10° NW 18:06:20 52° NE 18:08:33 18° ESE visible
27 Dec -0.8 18:49:06 10° WNW 18:51:42 22° SW 18:54:16 10° S visible
28 Dec -2.2 17:57:37 10° WNW 18:00:46 46° SW 18:03:54 10° SSE visible
30 Dec 0.0 17:52:50 10° W 17:54:52 16° SW 17:56:53 10° SSW visible
